User: anonymous   Login
Location: Caltech
(34.1382°N, 118.1253°W)
Time: 18:07:54
(UTC-08:00)
Language:

BREEZE M DEB (TANK) - Orbit

View from above orbital plane
View from above orbital plane
View from above satellite
View from above satellite

Ground track
Ground track

The orbit data is extracted from the following two-line orbital elements,

1 33437U 08057B   18053.48499500 +.00000248 +00000-0 +95988-4 0  9993
2 33437 049.6057 031.5212 4982757 257.9906 044.1805 05.60816310187881
Epoch (UTC): 22 February 2018 11:38:23
Eccentricity: 0.4982757
inclination: 49.6057°
perigee height: 336 km
apogee height: 13671 km
right ascension of ascending node: 31.5212°
argument of perigee: 257.9906°
revolutions per day: 5.60816310
mean anomaly at epoch: 44.1805°
orbit number at epoch: 18788

The dashed part of the orbit path shows where the satellite is in the earth's shadow,  

DLR